When you browse on this site, cookies collect data to enhance your experience and personalize the content and advertising you see.
Visit our Privacy Policy to learn more. By continuing to use the site, you agree to this use of cookies and data.
  • In Italy
  • List of Countries
  • For 7 days
  • Water Temperature
  • Satellite Maps
  • Weather Map
  • Weather Widgets
  • user-avatar
    Login

    Hourly Weather Mazari Sharif

    Today, 19 January, Saturday

    Time Temperature Precipitation Wind Pressure Humidity
    00:00 +7°C° 0 mm 1 mps 653 mmHg 50%
    01:00 +6°C° 0 mm 2 mps 653 mmHg 50%
    02:00 +5°C° 0 mm 2 mps 653 mmHg 51%
    03:00 +5°C° 0 mm 2 mps 652 mmHg 52%
    04:00 +4°C° 0 mm 2 mps 652 mmHg 54%
    05:00 +4°C° 0 mm 2 mps 652 mmHg 55%
    06:00 +4°C° 0 mm 2 mps 652 mmHg 56%
    07:00 +4°C° 0 mm 2 mps 652 mmHg 57%
    08:00 +5°C° 0.1 mm 2 mps 652 mmHg 55%
    09:00 +6°C° 0.1 mm 2 mps 652 mmHg 53%
    10:00 +7°C° 0.1 mm 2 mps 652 mmHg 51%
    11:00 +8°C° 0 mm 2 mps 651 mmHg 50%
    12:00 +8°C° 0 mm 2 mps 651 mmHg 49%
    13:00 +9°C° 0 mm 2 mps 650 mmHg 48%
    14:00 +8°C° 0.1 mm 2 mps 650 mmHg 51%
    15:00 +7°C° 0.1 mm 2 mps 649 mmHg 55%
    16:00 +6°C° 0.1 mm 2 mps 649 mmHg 59%
    17:00 +5°C° 0.1 mm 2 mps 649 mmHg 63%
    18:00 +5°C° 0.1 mm 2 mps 649 mmHg 67%
    19:00 +4°C° 0.1 mm 2 mps 650 mmHg 70%
    20:00 +3°C° 0 mm 2 mps 650 mmHg 74%
    21:00 +3°C° 0 mm 2 mps 650 mmHg 78%
    22:00 +1°C° 0 mm 3 mps 650 mmHg 81%
    23:00 +1°C° 0.1 mm 3 mps 650 mmHg 81%

    Tomorrow, 20 January, Sunday

    Time Temperature Precipitation Wind Pressure Humidity
    00:00 +1°C° 0.1 mm 3 mps 650 mmHg 82%
    01:00 +1°C° 0.1 mm 3 mps 650 mmHg 82%
    02:00 +1°C° 0.4 mm 2 mps 650 mmHg 82%
    03:00 +1°C° 0.4 mm 2 mps 650 mmHg 82%
    04:00 +1°C° 0.4 mm 2 mps 649 mmHg 83%
    05:00 0°C° 0.8 mm 3 mps 650 mmHg 84%
    06:00 -1°C° 0.8 mm 3 mps 650 mmHg 86%
    07:00 -2°C° 0.8 mm 4 mps 651 mmHg 88%
    08:00 -2°C° 0.2 mm 4 mps 651 mmHg 87%
    09:00 -2°C° 0.2 mm 5 mps 652 mmHg 86%
    10:00 -4°C° 0.2 mm 5 mps 652 mmHg 86%
    11:00 -4°C° 0.3 mm 5 mps 652 mmHg 85%
    12:00 -4°C° 0.3 mm 5 mps 652 mmHg 85%
    13:00 -4°C° 0.3 mm 6 mps 652 mmHg 84%
    14:00 -4°C° 0.4 mm 5 mps 653 mmHg 85%
    15:00 -5°C° 0.4 mm 5 mps 653 mmHg 85%
    16:00 -5°C° 0.4 mm 5 mps 654 mmHg 86%
    17:00 -4°C° 0.4 mm 4 mps 654 mmHg 85%
    18:00 -4°C° 0.4 mm 4 mps 655 mmHg 84%
    19:00 -4°C° 0.4 mm 3 mps 656 mmHg 84%
    20:00 -5°C° 0.3 mm 3 mps 656 mmHg 83%
    21:00 -4°C° 0.3 mm 2 mps 657 mmHg 83%
    22:00 -4°C° 0.3 mm 2 mps 657 mmHg 82%
    23:00 -4°C° 0.1 mm 2 mps 657 mmHg 82%

    Day after tomorrow, 21 January, Monday

    Time Temperature Precipitation Wind Pressure Humidity
    00:00 -4°C° 0.1 mm 2 mps 657 mmHg 82%
    01:00 -2°C° 0.1 mm 1 mps 657 mmHg 82%
    02:00 -2°C° 0.1 mm 1 mps 657 mmHg 81%
    03:00 -2°C° 0.1 mm 1 mps 657 mmHg 81%
    04:00 -2°C° 0.1 mm 1 mps 657 mmHg 80%
    05:00 -2°C° 0.1 mm 1 mps 658 mmHg 80%
    06:00 -3°C° 0.1 mm 1 mps 658 mmHg 80%
    07:00 -4°C° 0.1 mm 0 mps 658 mmHg 81%
    08:00 -2°C° 0.1 mm 1 mps 658 mmHg 77%
    09:00 -1°C° 0.1 mm 1 mps 658 mmHg 74%
    10:00 0°C° 0.1 mm 1 mps 658 mmHg 71%
    11:00 0°C° 0.1 mm 1 mps 658 mmHg 70%
    12:00 -2°C° 0.1 mm 2 mps 657 mmHg 68%
    13:00 -1°C° 0.1 mm 2 mps 657 mmHg 67%
    14:00 -1°C° 0.1 mm 2 mps 657 mmHg 67%
    15:00 -2°C° 0.1 mm 2 mps 657 mmHg 68%
    16:00 -2°C° 0.1 mm 2 mps 656 mmHg 68%
    17:00 0°C° 0 mm 1 mps 657 mmHg 70%
    18:00 -1°C° 0 mm 1 mps 657 mmHg 73%
    19:00 -2°C° 0 mm 0 mps 657 mmHg 75%
    20:00 -3°C° 0 mm 0 mps 657 mmHg 76%
    21:00 -2°C° 0 mm 1 mps 656 mmHg 76%
    22:00 -2°C° 0 mm 1 mps 656 mmHg 76%
    23:00 -2°C° 0 mm 1 mps 656 mmHg 76%

    22 January, Tuesday

    Time Temperature Precipitation Wind Pressure Humidity
    00:00 -2°C° 0 mm 1 mps 656 mmHg 76%
    01:00 -2°C° 0 mm 1 mps 655 mmHg 76%
    02:00 -2°C° 0 mm 1 mps 655 mmHg 76%
    03:00 -3°C° 0 mm 1 mps 655 mmHg 76%
    04:00 -3°C° 0 mm 1 mps 654 mmHg 76%
    05:00 -3°C° 0 mm 1 mps 654 mmHg 75%
    06:00 -3°C° 0 mm 1 mps 654 mmHg 74%
    07:00 -3°C° 0 mm 1 mps 654 mmHg 73%
    08:00 -2°C° 0 mm 1 mps 654 mmHg 68%
    09:00 0°C° 0 mm 1 mps 654 mmHg 63%
    10:00 +1°C° 0 mm 1 mps 654 mmHg 57%
    11:00 +2°C° 0 mm 1 mps 654 mmHg 57%
    12:00 +2°C° 0 mm 1 mps 653 mmHg 56%
    13:00 +3°C° 0 mm 1 mps 653 mmHg 56%
    14:00 +2°C° 0 mm 1 mps 653 mmHg 57%
    15:00 +2°C° 0 mm 1 mps 653 mmHg 58%
    16:00 +2°C° 0 mm 1 mps 652 mmHg 59%
    17:00 +1°C° 0 mm 1 mps 653 mmHg 61%
    18:00 0°C° 0 mm 1 mps 653 mmHg 63%
    19:00 -1°C° 0 mm 1 mps 653 mmHg 65%
    20:00 -1°C° 0 mm 1 mps 653 mmHg 63%
    21:00 -1°C° 0 mm 1 mps 653 mmHg 60%
    22:00 -1°C° 0 mm 1 mps 654 mmHg 57%
    23:00 -1°C° 0 mm 1 mps 653 mmHg 55%

    23 January, Wednesday

    Time Temperature Precipitation Wind Pressure Humidity
    00:00 -1°C° 0 mm 1 mps 653 mmHg 53%
    01:00 -1°C° 0 mm 1 mps 653 mmHg 51%
    02:00 -1°C° 0 mm 1 mps 653 mmHg 50%
    03:00 0°C° 0 mm 1 mps 653 mmHg 49%
    04:00 0°C° 0 mm 1 mps 653 mmHg 48%
    05:00 0°C° 0 mm 1 mps 653 mmHg 46%
    06:00 0°C° 0 mm 1 mps 654 mmHg 45%
    07:00 0°C° 0 mm 1 mps 654 mmHg 44%
    08:00 +1°C° 0 mm 1 mps 655 mmHg 40%
    09:00 +3°C° 0 mm 1 mps 655 mmHg 37%
    10:00 +3°C° 0 mm 0 mps 656 mmHg 33%
    11:00 +4°C° 0 mm 1 mps 655 mmHg 34%
    12:00 +5°C° 0 mm 1 mps 655 mmHg 34%
    13:00 +5°C° 0 mm 1 mps 654 mmHg 34%
    14:00 +5°C° 0 mm 1 mps 654 mmHg 37%
    15:00 +4°C° 0 mm 1 mps 654 mmHg 41%
    16:00 +4°C° 0 mm 1 mps 654 mmHg 44%
    17:00 +3°C° 0 mm 1 mps 655 mmHg 45%
    18:00 +3°C° 0 mm 1 mps 655 mmHg 47%
    19:00 +2°C° 0 mm 1 mps 656 mmHg 48%
    20:00 +2°C° 0 mm 1 mps 656 mmHg 47%
    21:00 +2°C° 0 mm 1 mps 656 mmHg 45%
    22:00 +1°C° 0 mm 1 mps 656 mmHg 44%
    23:00 +1°C° 0 mm 1 mps 656 mmHg 45%

    24 January, Thursday

    Time Temperature Precipitation Wind Pressure Humidity
    00:00 +1°C° 0 mm 1 mps 655 mmHg 45%
    01:00 +1°C° 0 mm 1 mps 655 mmHg 46%
    02:00 +1°C° 0 mm 1 mps 655 mmHg 47%
    03:00 +1°C° 0 mm 1 mps 655 mmHg 48%
    04:00 +1°C° 0 mm 1 mps 655 mmHg 49%
    05:00 +1°C° 0 mm 1 mps 656 mmHg 49%
    06:00 +1°C° 0 mm 1 mps 656 mmHg 49%
    07:00 +1°C° 0 mm 1 mps 657 mmHg 49%
    08:00 +2°C° 0 mm 1 mps 657 mmHg 46%
    09:00 +3°C° 0 mm 1 mps 657 mmHg 43%
    10:00 +5°C° 0 mm 1 mps 657 mmHg 39%
    11:00 +5°C° 0 mm 1 mps 657 mmHg 39%
    12:00 +5°C° 0 mm 1 mps 656 mmHg 39%
    13:00 +6°C° 0 mm 1 mps 656 mmHg 39%
    14:00 +6°C° 0 mm 1 mps 656 mmHg 41%
    15:00 +5°C° 0 mm 1 mps 656 mmHg 43%
    16:00 +5°C° 0 mm 1 mps 656 mmHg 44%
    17:00 +4°C° 0 mm 1 mps 656 mmHg 46%
    18:00 +3°C° 0 mm 1 mps 657 mmHg 48%
    19:00 +3°C° 0 mm 1 mps 657 mmHg 51%
    20:00 +2°C° 0 mm 1 mps 657 mmHg 51%
    21:00 +2°C° 0 mm 1 mps 657 mmHg 50%
    22:00 +2°C° 0 mm 1 mps 657 mmHg 50%
    23:00 +2°C° 0 mm 1 mps 657 mmHg 50%
    Show more